GOJ1997 LFBD-LFBZ

Flight info

Callsign GOJ1997
Flight time N/A
Altitude 7000
Route VAVIX DCT ENSAC/N0167F080 DCT MAGEC
Aircraft DA62/L-SDFGRY/C

Departure

Time N/A
Airport Bordeaux–Mérignac Airport (LFBD)

Arrival

Time 2026-05-03 20:26
Airport Biarritz Pays Basque airport (LFBZ)
Time Latitude Longitude Altitude Speed Heading
2026-05-03 20:15 43.72670 -1.49902 5188 ft 169 kts 223°
2026-05-03 20:15 43.71813 -1.51015 5012 ft 169 kts 223°
2026-05-03 20:15 43.70957 -1.52127 4837 ft 168 kts 223°
2026-05-03 20:15 43.70102 -1.53237 4661 ft 168 kts 223°
2026-05-03 20:16 43.69248 -1.54345 4486 ft 168 kts 223°
2026-05-03 20:16 43.68398 -1.55448 4310 ft 168 kts 223°
2026-05-03 20:16 43.67560 -1.56533 4149 ft 167 kts 223°
2026-05-03 20:16 43.66702 -1.57646 4000 ft 170 kts 223°
2026-05-03 20:17 43.65839 -1.58763 3874 ft 169 kts 223°
2026-05-03 20:17 43.64981 -1.59874 3748 ft 168 kts 223°
2026-05-03 20:17 43.64128 -1.60979 3623 ft 168 kts 223°
2026-05-03 20:17 43.63275 -1.62082 3497 ft 167 kts 223°
2026-05-03 20:18 43.62425 -1.63182 3372 ft 167 kts 223°
2026-05-03 20:18 43.61576 -1.64279 3246 ft 167 kts 223°
2026-05-03 20:18 43.60741 -1.65358 3123 ft 167 kts 223°
2026-05-03 20:18 43.59896 -1.66449 2998 ft 166 kts 223°
2026-05-03 20:19 43.59051 -1.67540 2843 ft 166 kts 223°
2026-05-03 20:19 43.58208 -1.68628 2689 ft 164 kts 223°
2026-05-03 20:19 43.57379 -1.69698 2568 ft 162 kts 223°
2026-05-03 20:19 43.56575 -1.70734 2561 ft 155 kts 223°
2026-05-03 20:20 43.55783 -1.71757 2562 ft 159 kts 223°
2026-05-03 20:20 43.54962 -1.72814 2564 ft 164 kts 223°
2026-05-03 20:20 43.54030 -1.73680 2561 ft 166 kts 201°
2026-05-03 20:20 43.52882 -1.73925 2479 ft 172 kts 179°
2026-05-03 20:21 43.51682 -1.73881 2328 ft 170 kts 179°
2026-05-03 20:21 43.50511 -1.73849 2176 ft 166 kts 179°
2026-05-03 20:21 43.49361 -1.73823 2062 ft 162 kts 180°
2026-05-03 20:21 43.48275 -1.73612 2057 ft 156 kts 160°
2026-05-03 20:22 43.47376 -1.72821 2055 ft 153 kts 136°
2026-05-03 20:22 43.46803 -1.71615 2053 ft 151 kts 112°
2026-05-03 20:22 43.46636 -1.70216 2051 ft 147 kts 89°
2026-05-03 20:22 43.46661 -1.68793 2054 ft 151 kts 90°
2026-05-03 20:23 43.46675 -1.67344 2054 ft 151 kts 90°
2026-05-03 20:23 43.46691 -1.65923 2054 ft 150 kts 90°
2026-05-03 20:23 43.46707 -1.64488 2041 ft 150 kts 90°
2026-05-03 20:23 43.46686 -1.63083 1639 ft 138 kts 94°
2026-05-03 20:24 43.46714 -1.61856 1421 ft 121 kts 85°
2026-05-03 20:24 43.46751 -1.60737 1280 ft 113 kts 89°
2026-05-03 20:24 43.46752 -1.59683 1171 ft 108 kts 91°
2026-05-03 20:24 43.46759 -1.58671 1068 ft 104 kts 91°
2026-05-03 20:25 43.46782 -1.57659 937 ft 111 kts 89°
2026-05-03 20:25 43.46794 -1.56577 766 ft 112 kts 91°
2026-05-03 20:25 43.46797 -1.55533 573 ft 105 kts 89°
2026-05-03 20:25 43.46812 -1.54552 438 ft 101 kts 89°
2026-05-03 20:26 43.46820 -1.53593 312 ft 98 kts 89°
2026-05-03 20:26 43.46835 -1.52683 251 ft 88 kts 88°
2026-05-03 20:26 43.46840 -1.52141 244 ft 9 kts 90°
2026-05-03 20:26 43.46865 -1.52140 244 ft 11 kts 298°
2026-05-03 20:27 43.46913 -1.52174 244 ft 8 kts
2026-05-03 20:27 43.46965 -1.52185 244 ft 7 kts 328°
2026-05-03 20:27 43.46993 -1.52238 245 ft 7 kts 287°
2026-05-03 20:27 43.46997 -1.52296 245 ft 6 kts 270°
2026-05-03 20:28 43.46997 -1.52353 246 ft 12 kts 270°
2026-05-03 20:28 43.46997 -1.52498 247 ft 18 kts 270°
2026-05-03 20:28 43.46997 -1.52650 248 ft 14 kts 270°
2026-05-03 20:28 43.46996 -1.52774 249 ft 12 kts 269°
2026-05-03 20:29 43.46995 -1.52880 249 ft 10 kts 269°
2026-05-03 20:29 43.46994 -1.52972 250 ft 9 kts 267°
2026-05-03 20:29 43.46992 -1.53054 251 ft 8 kts 268°
2026-05-03 20:29 43.46989 -1.53129 251 ft 7 kts 268°
2026-05-03 20:30 43.46988 -1.53197 252 ft 7 kts 272°
2026-05-03 20:30 43.46990 -1.53260 252 ft 6 kts 269°
2026-05-03 20:30 43.46996 -1.53315 253 ft 6 kts 322°
2026-05-03 20:30 43.47004 -1.53323 253 ft 0 kts 336°
2026-05-03 20:31 43.47017 -1.53321 253 ft 5 kts 39°
2026-05-03 20:31 43.47023 -1.53298 252 ft 0 kts 110°
2026-05-03 20:31 43.47022 -1.53292 252 ft 0 kts 91°